Change the Weather History Date:

Monday, March 24, 2014

  Actual Average Record
Temperature  
Mean Temperature 10 °F -  
Max Temperature 20 °F 35 °F 55 °F (2003)
Min Temperature 1 °F 23 °F 0 °F (1974)
Degree Days  
Heating Degree Days 54    
Moisture  
Dew Point 4 °F    
Average Humidity 72    
Maximum Humidity 83    
Minimum Humidity 60    
Precipitation  
Precipitation 0.00 in - - ()
Sea Level Pressure  
Sea Level Pressure 30.15 in    
Wind  
Wind Speed 7 mph (SW)    
Max Wind Speed 18 mph    
Max Gust Speed 26 mph    
Visibility 10 miles    
Events      
Averages and records for this station are not official NWS values.
T = Trace of Precipitation, MM = Missing Value Source: NWS Daily Summary

Daily Weather History Graph

Daily Weather History Graph

Search for Another Location

Airport or City:

Trip Planner

Search our weather history database for the weather conditions in past years. The results will help you decide how hot, cold, wet, or windy it might be!

Date:

Astronomy

Mar. 24, 2014 Rise Set
Actual Time 7:33 AM EDT 7:56 PM EDT
Civil Twilight 7:04 AM EDT 8:26 PM EDT
Nautical Twilight 6:28 AM EDT 9:01 PM EDT
Astronomical Twilight 5:52 AM EDT 9:38 PM EDT
Moon 3:20 AM EDT (3/24) 1:03 PM EDT (3/24)
Length of Visible Light 13h 22m
Length of Day
12h 22m
Last Quarter, 43% of the Moon is Illuminated
Mar 24
Last Quarter
Mar 30
New
Apr 7
First Quarter
Apr 15
Full
Apr 22
Last Quarter

Hourly Weather History & Observations

Time (EDT) Temp. Windchill Dew Point Humidity Pressure Visibility Wind Dir Wind Speed Gust Speed Precip Events Conditions
12:00 AM 5.2 °F -1.9 °F -2.2 °F 72% 30.30 in 10.0 mi NW 3.5 mph - N/A   Clear
12:19 AM 4.8 °F -2.3 °F -1.8 °F 74% 30.30 in 10.0 mi NW 3.5 mph - N/A   Clear
12:40 AM 5.0 °F -2.1 °F -1.3 °F 75% 30.30 in 10.0 mi NW 3.5 mph - N/A   Clear
1:00 AM 4.5 °F - -1.5 °F 76% 30.29 in 10.0 mi Calm Calm - N/A   Clear
1:19 AM 4.3 °F - -1.5 °F 77% 30.29 in 10.0 mi Calm Calm - N/A   Clear
1:40 AM 3.7 °F -3.6 °F -1.8 °F 78% 30.29 in 10.0 mi West 3.5 mph - N/A   Clear
2:00 AM 3.2 °F -6.2 °F -1.8 °F 80% 30.29 in 10.0 mi WSW 4.6 mph - N/A   Clear
2:19 AM 3.2 °F -9.1 °F -1.7 °F 80% 30.29 in 10.0 mi SW 6.9 mph - N/A   Clear
2:40 AM 3.6 °F -8.7 °F -1.7 °F 79% 30.30 in 10.0 mi SW 6.9 mph - N/A   Clear
3:00 AM 2.8 °F -8.2 °F -2.0 °F 80% 30.29 in 10.0 mi SW 5.8 mph - N/A   Clear
3:19 AM 2.8 °F -9.5 °F -2.2 °F 79% 30.29 in 10.0 mi SW 6.9 mph - N/A   Clear
3:40 AM 3.7 °F -7.1 °F -1.3 °F 80% 30.28 in 10.0 mi SW 5.8 mph - N/A   Clear
3:59 AM 3.9 °F -8.2 °F -1.3 °F 79% 30.28 in 10.0 mi SW 6.9 mph - N/A   Clear
4:20 AM 3.9 °F -6.9 °F -1.3 °F 79% 30.27 in 10.0 mi SW 5.8 mph - N/A   Clear
4:40 AM 3.4 °F -7.5 °F -1.7 °F 80% 30.27 in 10.0 mi SW 5.8 mph - N/A   Clear
4:59 AM 3.7 °F -7.1 °F -1.3 °F 80% 30.26 in 10.0 mi SW 5.8 mph - N/A   Clear
5:20 AM 3.2 °F -7.8 °F -1.5 °F 81% 30.26 in 10.0 mi SW 5.8 mph - N/A   Clear
5:40 AM 2.8 °F -8.2 °F -1.7 °F 81% 30.25 in 10.0 mi SW 5.8 mph - N/A   Clear
5:59 AM 2.7 °F -8.4 °F -1.8 °F 81% 30.25 in 10.0 mi WSW 5.8 mph - N/A   Clear
6:20 AM 2.3 °F -8.8 °F -1.8 °F 83% 30.25 in 10.0 mi WSW 5.8 mph - N/A   Clear
6:40 AM 2.3 °F -8.8 °F -2.0 °F 82% 30.24 in 10.0 mi WSW 5.8 mph - N/A   Clear
6:59 AM 2.3 °F -8.8 °F -2.0 °F 82% 30.24 in 10.0 mi SW 5.8 mph - N/A   Clear
7:20 AM 1.9 °F -9.2 °F -2.0 °F 83% 30.23 in 10.0 mi SSW 5.8 mph - N/A   Clear
7:39 AM 2.1 °F -10.4 °F -2.2 °F 82% 30.23 in 10.0 mi SW 6.9 mph - N/A   Clear
8:00 AM 2.1 °F -10.4 °F -2.2 °F 82% 30.23 in 10.0 mi SSW 6.9 mph - N/A   Clear
8:20 AM 2.3 °F -10.2 °F -1.8 °F 83% 30.22 in 10.0 mi SSW 6.9 mph - N/A   Clear
8:39 AM 3.7 °F -7.1 °F -1.3 °F 80% 30.21 in 10.0 mi SSW 5.8 mph - N/A   Clear
9:00 AM 9.0 °F -0.9 °F 0.9 °F 70% 30.21 in 10.0 mi SSW 5.8 mph - N/A   Clear
9:20 AM 10.6 °F 2.5 °F 1.2 °F 66% 30.20 in 10.0 mi SSW 4.6 mph - N/A   Clear
9:39 AM 12.2 °F 6.1 °F 1.6 °F 63% 30.20 in 10.0 mi SSW 3.5 mph - N/A   Clear
10:00 AM 12.0 °F 2.7 °F 1.4 °F 62% 30.20 in 10.0 mi SSW 5.8 mph - N/A   Clear
10:20 AM 12.6 °F 1.1 °F 2.1 °F 63% 30.20 in 10.0 mi SSW 8.1 mph - N/A   Clear
10:39 AM 13.6 °F 2.5 °F 3.6 °F 64% 30.19 in 10.0 mi SSW 8.1 mph - N/A   Clear
11:00 AM 14.9 °F 7.5 °F 5.9 °F 68% 30.19 in 10.0 mi SW 4.6 mph - N/A   Scattered Clouds
11:20 AM 14.5 °F 1.9 °F 5.7 °F 68% 30.18 in 10.0 mi WSW 10.4 mph - N/A   Mostly Cloudy
11:40 AM 14.5 °F 3.6 °F 5.9 °F 69% 30.18 in 10.0 mi SW 8.1 mph - N/A   Overcast
12:00 PM 15.1 °F 3.3 °F 7.2 °F 71% 30.17 in 10.0 mi SW 9.2 mph 17.3 mph N/A   Overcast
12:19 PM 16.5 °F 4.3 °F 8.1 °F 69% 30.16 in 10.0 mi WSW 10.4 mph 17.3 mph N/A   Overcast
12:40 PM 18.5 °F 7.5 °F 9.0 °F 66% 30.16 in 10.0 mi WSW 9.2 mph 17.3 mph N/A   Mostly Cloudy
1:00 PM 19.0 °F 7.5 °F 7.9 °F 62% 30.15 in 10.0 mi WSW 10.4 mph 19.6 mph N/A   Scattered Clouds
1:19 PM 18.9 °F 4.3 °F 10.4 °F 70% 30.15 in 10.0 mi WSW 16.1 mph 24.2 mph N/A   Clear
1:40 PM 19.2 °F 6.4 °F 10.9 °F 70% 30.14 in 10.0 mi WSW 12.7 mph 24.2 mph N/A   Scattered Clouds
2:00 PM 19.9 °F 7.3 °F 9.9 °F 65% 30.12 in 10.0 mi WSW 12.7 mph 20.7 mph N/A   Clear
2:20 PM 20.3 °F 5.2 °F 10.0 °F 65% 30.11 in 10.0 mi WSW 18.4 mph 23.0 mph N/A   Clear
2:40 PM 19.6 °F 6.8 °F 10.0 °F 66% 30.10 in 10.0 mi WSW 12.7 mph 23.0 mph N/A   Scattered Clouds
3:00 PM 20.1 °F 8.1 °F 11.8 °F 70% 30.09 in 10.0 mi SW 11.5 mph 20.7 mph N/A   Mostly Cloudy
3:20 PM 19.8 °F 5.0 °F 11.5 °F 70% 30.08 in 10.0 mi WSW 17.3 mph 25.3 mph N/A   Scattered Clouds
3:40 PM 19.9 °F 5.7 °F 11.7 °F 70% 30.08 in 7.0 mi WSW 16.1 mph 24.2 mph N/A   Overcast
4:00 PM 20.1 °F 5.9 °F 11.7 °F 70% 30.07 in 7.0 mi WSW 16.1 mph 26.5 mph N/A   Overcast
4:20 PM 20.5 °F 6.4 °F 12.2 °F 70% 30.06 in 7.0 mi WSW 16.1 mph 24.2 mph N/A   Overcast
4:40 PM 19.8 °F 7.1 °F 12.2 °F 72% 30.06 in 7.0 mi WSW 12.7 mph 23.0 mph N/A   Overcast
5:00 PM 19.9 °F 7.3 °F 12.9 °F 74% 30.05 in 10.0 mi SW 12.7 mph 23.0 mph N/A   Scattered Clouds
5:20 PM 19.9 °F 8.6 °F 13.1 °F 75% 30.04 in 10.0 mi SW 10.4 mph 21.9 mph N/A   Scattered Clouds
5:40 PM 20.5 °F 10.0 °F 12.2 °F 70% 30.03 in 10.0 mi SW 9.2 mph 19.6 mph N/A   Clear
6:00 PM 20.5 °F 6.9 °F 12.0 °F 70% 30.03 in 10.0 mi WSW 15.0 mph 21.9 mph N/A   Clear
6:20 PM 20.3 °F 6.1 °F 11.8 °F 70% 30.02 in 10.0 mi WSW 16.1 mph 21.9 mph N/A   Clear
6:40 PM 20.1 °F 7.5 °F 10.6 °F 67% 30.02 in 10.0 mi WSW 12.7 mph 19.6 mph N/A   Clear
7:00 PM 19.4 °F 6.6 °F 9.9 °F 66% 30.01 in 10.0 mi WSW 12.7 mph 19.6 mph N/A   Clear
7:20 PM 19.0 °F 8.2 °F 9.5 °F 66% 30.01 in 10.0 mi SW 9.2 mph 18.4 mph N/A   Clear
7:40 PM 17.6 °F 5.0 °F 9.1 °F 69% 30.00 in 10.0 mi SW 11.5 mph 18.4 mph N/A   Clear
8:00 PM 17.6 °F 5.7 °F 7.7 °F 65% 30.00 in 10.0 mi WSW 10.4 mph 16.1 mph N/A   Clear
8:20 PM 17.6 °F 5.7 °F 6.8 °F 63% 29.99 in 10.0 mi SW 10.4 mph - N/A   Clear
8:40 PM 17.6 °F 8.2 °F 6.8 °F 63% 29.99 in 10.0 mi SW 6.9 mph - N/A   Clear
9:00 PM 18.5 °F 8.4 °F 6.8 °F 60% 29.99 in 10.0 mi SSW 8.1 mph - N/A   Clear
9:20 PM 18.0 °F 7.7 °F 6.8 °F 62% 29.98 in 10.0 mi SSW 8.1 mph - N/A   Clear
9:40 PM 17.6 °F 8.2 °F 6.8 °F 63% 29.98 in 10.0 mi SSW 6.9 mph - N/A   Clear
10:00 PM 16.7 °F 8.3 °F 6.4 °F 64% 29.97 in 10.0 mi SSW 5.8 mph - N/A   Clear
10:20 PM 16.7 °F 8.3 °F 6.4 °F 64% 29.96 in 10.0 mi SSW 5.8 mph - N/A   Clear
10:40 PM 16.5 °F 6.9 °F 6.6 °F 65% 29.96 in 10.0 mi SSW 6.9 mph - N/A   Clear
11:01 PM 14.9 °F 9.2 °F 5.9 °F 68% 29.96 in 10.0 mi NW 3.5 mph - N/A   Clear
11:20 PM 12.9 °F 3.8 °F 6.3 °F 75% 29.97 in 10.0 mi North 5.8 mph - N/A   Clear
11:40 PM 11.8 °F 1.3 °F 6.1 °F 78% 29.96 in 10.0 mi North 6.9 mph - N/A   Clear